Year,Month,Day,Hour,Minute,Value (Times are PST for temperature in C)
2017,05,27,00,00,15.30
2017,05,27,00,01,15.30
2017,05,27,00,02,15.30
2017,05,27,00,03,15.30
2017,05,27,00,04,15.30
2017,05,27,00,05,15.30
2017,05,27,00,06,15.20
2017,05,27,00,07,15.20
2017,05,27,00,08,15.20
2017,05,27,00,09,15.20
2017,05,27,00,10,15.20
2017,05,27,00,11,15.20
2017,05,27,00,12,15.20
2017,05,27,00,13,15.20
2017,05,27,00,14,15.30
2017,05,27,00,15,15.30
2017,05,27,00,16,15.30
2017,05,27,00,17,15.30
2017,05,27,00,18,15.30
2017,05,27,00,19,15.30
2017,05,27,00,20,15.30
2017,05,27,00,21,15.30
2017,05,27,00,22,15.20
2017,05,27,00,23,15.20
2017,05,27,00,24,15.20
2017,05,27,00,25,15.20
2017,05,27,00,26,15.20
2017,05,27,00,27,15.20
2017,05,27,00,28,15.20
2017,05,27,00,29,15.20
2017,05,27,00,30,15.20
2017,05,27,00,31,15.20
2017,05,27,00,32,15.20
2017,05,27,00,33,15.20
2017,05,27,00,34,15.20
2017,05,27,00,35,15.20
2017,05,27,00,36,15.10
2017,05,27,00,37,15.10
2017,05,27,00,38,15.10
2017,05,27,00,39,15.10
2017,05,27,00,40,15.20
2017,05,27,00,41,15.20
2017,05,27,00,42,15.20
2017,05,27,00,43,15.20
2017,05,27,00,44,15.20
2017,05,27,00,45,15.30
2017,05,27,00,46,15.30
2017,05,27,00,47,15.30
2017,05,27,00,48,15.30
2017,05,27,00,49,15.30
2017,05,27,00,50,15.30
2017,05,27,00,51,15.30
2017,05,27,00,52,15.30
2017,05,27,00,53,15.30
2017,05,27,00,54,15.30
2017,05,27,00,55,15.30
2017,05,27,00,56,15.30
2017,05,27,00,57,15.30
2017,05,27,00,58,15.30
2017,05,27,00,59,15.30
2017,05,27,01,00,15.30
2017,05,27,01,01,15.30
2017,05,27,01,02,15.20
2017,05,27,01,03,15.20
2017,05,27,01,04,15.20
2017,05,27,01,05,15.20
2017,05,27,01,06,15.20
2017,05,27,01,07,15.20
2017,05,27,01,08,15.20
2017,05,27,01,09,15.20
2017,05,27,01,10,15.20
2017,05,27,01,11,15.20
2017,05,27,01,12,15.20
2017,05,27,01,13,15.20
2017,05,27,01,14,15.10
2017,05,27,01,15,15.10
2017,05,27,01,16,15.10
2017,05,27,01,17,15.10
2017,05,27,01,18,15.10
2017,05,27,01,19,15.10
2017,05,27,01,20,15.00
2017,05,27,01,21,15.00
2017,05,27,01,22,15.00
2017,05,27,01,23,15.00
2017,05,27,01,24,15.00
2017,05,27,01,25,15.00
2017,05,27,01,26,14.90
2017,05,27,01,27,14.90
2017,05,27,01,28,14.90
2017,05,27,01,29,14.90
2017,05,27,01,30,14.90
2017,05,27,01,31,14.90
2017,05,27,01,32,14.90
2017,05,27,01,33,14.90
2017,05,27,01,34,14.90
2017,05,27,01,35,14.90
2017,05,27,01,36,14.90
2017,05,27,01,37,14.90
2017,05,27,01,38,14.90
2017,05,27,01,39,14.90
2017,05,27,01,40,14.90
2017,05,27,01,41,14.90
2017,05,27,01,42,14.90
2017,05,27,01,43,14.90
2017,05,27,01,44,14.90
2017,05,27,01,45,14.90
2017,05,27,01,46,14.90
2017,05,27,01,47,14.90
2017,05,27,01,48,14.90
2017,05,27,01,49,14.90
2017,05,27,01,50,14.90
2017,05,27,01,51,14.80
2017,05,27,01,52,14.80
2017,05,27,01,53,14.80
2017,05,27,01,54,14.80
2017,05,27,01,55,14.80
2017,05,27,01,56,14.80
2017,05,27,01,57,14.80
2017,05,27,01,58,14.80
2017,05,27,01,59,14.80
2017,05,27,02,00,14.80
2017,05,27,02,01,14.80
2017,05,27,02,02,14.80
2017,05,27,02,03,14.80
2017,05,27,02,04,14.80
2017,05,27,02,05,14.80
2017,05,27,02,06,14.80
2017,05,27,02,07,14.80
2017,05,27,02,08,14.80
2017,05,27,02,09,14.80
2017,05,27,02,10,14.80
2017,05,27,02,11,14.80
2017,05,27,02,12,14.80
2017,05,27,02,13,14.80
2017,05,27,02,14,14.80
2017,05,27,02,15,14.80
2017,05,27,02,16,14.80
2017,05,27,02,17,14.80
2017,05,27,02,18,14.80
2017,05,27,02,19,14.80
2017,05,27,02,20,14.80
2017,05,27,02,21,14.80
2017,05,27,02,22,14.80
2017,05,27,02,23,14.80
2017,05,27,02,24,14.80
2017,05,27,02,25,14.80
2017,05,27,02,26,14.80
2017,05,27,02,27,14.80
2017,05,27,02,28,14.80
2017,05,27,02,29,14.70
2017,05,27,02,30,14.70
2017,05,27,02,31,14.70
2017,05,27,02,32,14.70
2017,05,27,02,33,14.80
2017,05,27,02,34,14.80
2017,05,27,02,35,14.80
2017,05,27,02,36,14.80
2017,05,27,02,37,14.80
2017,05,27,02,38,14.80
2017,05,27,02,39,14.80
2017,05,27,02,40,14.80
2017,05,27,02,41,14.80
2017,05,27,02,42,14.80
2017,05,27,02,43,14.80
2017,05,27,02,44,14.80
2017,05,27,02,45,14.80
2017,05,27,02,46,14.80
2017,05,27,02,47,14.80
2017,05,27,02,48,14.90
2017,05,27,02,49,14.90
2017,05,27,02,50,14.90
2017,05,27,02,51,14.90
2017,05,27,02,52,14.90
2017,05,27,02,53,14.90
2017,05,27,02,54,14.90
2017,05,27,02,55,14.90
2017,05,27,02,56,14.90
2017,05,27,02,57,14.90
2017,05,27,02,58,14.80
2017,05,27,02,59,14.80
2017,05,27,03,00,14.80
2017,05,27,03,01,14.80
2017,05,27,03,02,14.80
2017,05,27,03,03,14.70
2017,05,27,03,04,14.70
2017,05,27,03,05,14.70
2017,05,27,03,06,14.70
2017,05,27,03,07,14.60
2017,05,27,03,08,14.60
2017,05,27,03,09,14.60
2017,05,27,03,10,14.60
2017,05,27,03,11,14.50
2017,05,27,03,12,14.50
2017,05,27,03,13,14.50
2017,05,27,03,14,14.40
2017,05,27,03,15,14.40
2017,05,27,03,16,14.40
2017,05,27,03,17,14.30
2017,05,27,03,18,14.30
2017,05,27,03,19,14.20
2017,05,27,03,20,14.20
2017,05,27,03,21,14.20
2017,05,27,03,22,14.20
2017,05,27,03,23,14.10
2017,05,27,03,24,14.10
2017,05,27,03,25,14.00
2017,05,27,03,26,14.00
2017,05,27,03,27,14.00
2017,05,27,03,28,14.00
2017,05,27,03,29,13.90
2017,05,27,03,30,13.90
2017,05,27,03,31,13.90
2017,05,27,03,32,13.90
2017,05,27,03,33,13.80
2017,05,27,03,34,13.80
2017,05,27,03,35,13.70
2017,05,27,03,36,13.70
2017,05,27,03,37,13.70
2017,05,27,03,38,13.70
2017,05,27,03,39,13.70
2017,05,27,03,40,13.60
2017,05,27,03,41,13.60
2017,05,27,03,42,13.60
2017,05,27,03,43,13.60
2017,05,27,03,44,13.50
2017,05,27,03,45,13.50
2017,05,27,03,46,13.50
2017,05,27,03,47,13.50
2017,05,27,03,48,13.50
2017,05,27,03,49,13.40
2017,05,27,03,50,13.40
2017,05,27,03,51,13.40
2017,05,27,03,52,13.40
2017,05,27,03,53,13.40
2017,05,27,03,54,13.30
2017,05,27,03,55,13.30
2017,05,27,03,56,13.30
2017,05,27,03,57,13.30
2017,05,27,03,58,13.30
2017,05,27,03,59,13.30
2017,05,27,04,00,13.30
2017,05,27,04,01,13.40
2017,05,27,04,02,13.40
2017,05,27,04,03,13.40
2017,05,27,04,04,13.40
2017,05,27,04,05,13.40
2017,05,27,04,06,13.50
2017,05,27,04,07,13.50
2017,05,27,04,08,13.50
2017,05,27,04,09,13.50
2017,05,27,04,10,13.50
2017,05,27,04,11,13.50
2017,05,27,04,12,13.50
2017,05,27,04,13,13.50
2017,05,27,04,14,13.50
2017,05,27,04,15,13.50
2017,05,27,04,16,13.50
2017,05,27,04,17,13.40
2017,05,27,04,18,13.40
2017,05,27,04,19,13.40
2017,05,27,04,20,13.40
2017,05,27,04,21,13.40
2017,05,27,04,22,13.40
2017,05,27,04,23,13.40
2017,05,27,04,24,13.40
2017,05,27,04,25,13.40
2017,05,27,04,26,13.40
2017,05,27,04,27,13.30
2017,05,27,04,28,13.30
2017,05,27,04,29,13.30
2017,05,27,04,30,13.30
2017,05,27,04,31,13.30
2017,05,27,04,32,13.30
2017,05,27,04,33,13.30
2017,05,27,04,34,13.30
2017,05,27,04,35,13.30
2017,05,27,04,36,13.30
2017,05,27,04,37,13.30
2017,05,27,04,38,13.30
2017,05,27,04,39,13.30
2017,05,27,04,40,13.30
2017,05,27,04,41,13.20
2017,05,27,04,42,13.20
2017,05,27,04,43,13.20
2017,05,27,04,44,13.10
2017,05,27,04,45,13.10
2017,05,27,04,46,13.10
2017,05,27,04,47,13.10
2017,05,27,04,48,13.00
2017,05,27,04,49,13.00
2017,05,27,04,50,13.00
2017,05,27,04,51,13.00
2017,05,27,04,52,13.00
2017,05,27,04,53,12.90
2017,05,27,04,54,12.90
2017,05,27,04,55,12.90
2017,05,27,04,56,12.90
2017,05,27,04,57,12.90
2017,05,27,04,58,12.90
2017,05,27,04,59,12.90
2017,05,27,05,00,12.80
2017,05,27,05,01,12.80
2017,05,27,05,02,12.80
2017,05,27,05,03,12.80
2017,05,27,05,04,12.80
2017,05,27,05,05,12.80
2017,05,27,05,06,12.80
2017,05,27,05,07,12.80
2017,05,27,05,08,12.80
2017,05,27,05,09,12.70
2017,05,27,05,10,12.70
2017,05,27,05,11,12.70
2017,05,27,05,12,12.70
2017,05,27,05,13,12.70
2017,05,27,05,14,12.70
2017,05,27,05,15,12.70
2017,05,27,05,16,12.70
2017,05,27,05,17,12.60
2017,05,27,05,18,12.60
2017,05,27,05,19,12.60
2017,05,27,05,20,12.60
2017,05,27,05,21,12.60
2017,05,27,05,22,12.60
2017,05,27,05,23,12.60
2017,05,27,05,24,12.60
2017,05,27,05,25,12.60
2017,05,27,05,26,12.60
2017,05,27,05,27,12.60
2017,05,27,05,28,12.50
2017,05,27,05,29,12.50
2017,05,27,05,30,12.50
2017,05,27,05,31,12.50
2017,05,27,05,32,12.50
2017,05,27,05,33,12.50
2017,05,27,05,34,12.50
2017,05,27,05,35,12.50
2017,05,27,05,36,12.40
2017,05,27,05,37,12.40
2017,05,27,05,38,12.40
2017,05,27,05,39,12.40
2017,05,27,05,40,12.40
2017,05,27,05,41,12.40
2017,05,27,05,42,12.40
2017,05,27,05,43,12.40
2017,05,27,05,44,12.40
2017,05,27,05,45,12.40
2017,05,27,05,46,12.40
2017,05,27,05,47,12.40
2017,05,27,05,48,12.40
2017,05,27,05,49,12.50
2017,05,27,05,50,12.50
2017,05,27,05,51,12.50
2017,05,27,05,52,12.50
2017,05,27,05,53,12.50
2017,05,27,05,54,12.50
2017,05,27,05,55,12.50
2017,05,27,05,56,12.60
2017,05,27,05,57,12.60
2017,05,27,05,58,12.60
2017,05,27,05,59,12.60
2017,05,27,06,00,12.60
2017,05,27,06,01,12.60
2017,05,27,06,02,12.60
2017,05,27,06,03,12.60
2017,05,27,06,04,12.60
2017,05,27,06,05,12.70
2017,05,27,06,06,12.70
2017,05,27,06,07,12.70
2017,05,27,06,08,12.70
2017,05,27,06,09,12.70
2017,05,27,06,10,12.70
2017,05,27,06,11,12.70
2017,05,27,06,12,12.70
2017,05,27,06,13,12.80
2017,05,27,06,14,12.80
2017,05,27,06,15,12.80
2017,05,27,06,16,12.80
2017,05,27,06,17,12.80
2017,05,27,06,18,12.80
2017,05,27,06,19,12.90
2017,05,27,06,20,12.90
2017,05,27,06,21,13.00
2017,05,27,06,22,13.00
2017,05,27,06,23,13.10
2017,05,27,06,24,13.10
2017,05,27,06,25,13.10
2017,05,27,06,26,13.20
2017,05,27,06,27,13.20
2017,05,27,06,28,13.30
2017,05,27,06,29,13.30
2017,05,27,06,30,13.30
2017,05,27,06,31,13.40
2017,05,27,06,32,13.40
2017,05,27,06,33,13.50
2017,05,27,06,34,13.50
2017,05,27,06,35,13.60
2017,05,27,06,36,13.70
2017,05,27,06,37,13.70
2017,05,27,06,38,13.80
2017,05,27,06,39,13.90
2017,05,27,06,40,13.90
2017,05,27,06,41,14.00
2017,05,27,06,42,14.00
2017,05,27,06,43,14.10
2017,05,27,06,44,14.20
2017,05,27,06,45,14.20
2017,05,27,06,46,14.30
2017,05,27,06,47,14.40
2017,05,27,06,48,14.50
2017,05,27,06,49,14.60
2017,05,27,06,50,14.60
2017,05,27,06,51,14.70
2017,05,27,06,52,14.80
2017,05,27,06,53,14.80
2017,05,27,06,54,14.90
2017,05,27,06,55,15.00
2017,05,27,06,56,15.10
2017,05,27,06,57,15.20
2017,05,27,06,58,15.40
2017,05,27,06,59,15.50
2017,05,27,07,00,15.70
2017,05,27,07,01,15.90
2017,05,27,07,02,16.10
2017,05,27,07,03,16.30
2017,05,27,07,04,16.40
2017,05,27,07,05,16.60
2017,05,27,07,06,16.70
2017,05,27,07,07,16.90
2017,05,27,07,08,17.00
2017,05,27,07,09,17.00
2017,05,27,07,10,17.20
2017,05,27,07,11,17.30
2017,05,27,07,12,17.30
2017,05,27,07,13,17.30
2017,05,27,07,14,17.30
2017,05,27,07,15,17.30
2017,05,27,07,16,17.30
2017,05,27,07,17,17.30
2017,05,27,07,18,17.30
2017,05,27,07,19,17.20
2017,05,27,07,20,17.00
2017,05,27,07,21,16.90
2017,05,27,07,22,16.90
2017,05,27,07,23,16.90
2017,05,27,07,24,16.90
2017,05,27,07,25,17.00
2017,05,27,07,26,16.90
2017,05,27,07,27,16.90
2017,05,27,07,28,16.80
2017,05,27,07,29,16.80
2017,05,27,07,30,16.80
2017,05,27,07,31,16.80
2017,05,27,07,32,16.80
2017,05,27,07,33,16.90
2017,05,27,07,34,16.90
2017,05,27,07,35,16.90
2017,05,27,07,36,16.90
2017,05,27,07,37,16.90
2017,05,27,07,38,16.90
2017,05,27,07,39,16.90
2017,05,27,07,40,16.90
2017,05,27,07,41,16.90
2017,05,27,07,42,17.00
2017,05,27,07,43,17.00
2017,05,27,07,44,17.10
2017,05,27,07,45,17.20
2017,05,27,07,46,17.20
2017,05,27,07,47,17.10
2017,05,27,07,48,17.00
2017,05,27,07,49,16.90
2017,05,27,07,50,16.80
2017,05,27,07,51,16.80
2017,05,27,07,52,16.80
2017,05,27,07,53,16.80
2017,05,27,07,54,16.90
2017,05,27,07,55,16.90
2017,05,27,07,56,16.80
2017,05,27,07,57,16.80
2017,05,27,07,58,16.80
2017,05,27,07,59,16.90
2017,05,27,08,00,16.90
2017,05,27,08,01,16.90
2017,05,27,08,02,17.00
2017,05,27,08,03,17.00
2017,05,27,08,04,17.10
2017,05,27,08,05,17.10
2017,05,27,08,06,17.30
2017,05,27,08,07,17.30
2017,05,27,08,08,17.30
2017,05,27,08,09,17.30
2017,05,27,08,10,17.30
2017,05,27,08,11,17.30
2017,05,27,08,12,17.30
2017,05,27,08,13,17.30
2017,05,27,08,14,17.30
2017,05,27,08,15,17.30
2017,05,27,08,16,17.30
2017,05,27,08,17,17.30
2017,05,27,08,18,17.30
2017,05,27,08,19,17.30
2017,05,27,08,20,17.30
2017,05,27,08,21,17.30
2017,05,27,08,22,17.30
2017,05,27,08,23,17.30
2017,05,27,08,24,17.20
2017,05,27,08,25,17.00
2017,05,27,08,26,16.90
2017,05,27,08,27,16.80
2017,05,27,08,28,16.80
2017,05,27,08,29,16.80
2017,05,27,08,30,16.80
2017,05,27,08,31,16.80
2017,05,27,08,32,16.90
2017,05,27,08,33,17.00
2017,05,27,08,34,17.10
2017,05,27,08,35,17.20
2017,05,27,08,36,17.30
2017,05,27,08,37,17.20
2017,05,27,08,38,17.20
2017,05,27,08,39,17.20
2017,05,27,08,40,17.30
2017,05,27,08,41,17.30
2017,05,27,08,42,17.40
2017,05,27,08,43,17.40
2017,05,27,08,44,17.50
2017,05,27,08,45,17.60
2017,05,27,08,46,17.50
2017,05,27,08,47,17.60
2017,05,27,08,48,17.60
2017,05,27,08,49,17.70
2017,05,27,08,50,17.60
2017,05,27,08,51,17.60
2017,05,27,08,52,17.60
2017,05,27,08,53,17.60
2017,05,27,08,54,17.70
2017,05,27,08,55,17.80
2017,05,27,08,56,17.90
2017,05,27,08,57,17.90
2017,05,27,08,58,17.90
2017,05,27,08,59,17.90
2017,05,27,09,00,17.90
2017,05,27,09,01,17.90
2017,05,27,09,02,17.80
2017,05,27,09,03,17.60
2017,05,27,09,04,17.50
2017,05,27,09,05,17.40
2017,05,27,09,06,17.30
2017,05,27,09,07,17.30
2017,05,27,09,08,17.50
2017,05,27,09,09,17.50
2017,05,27,09,10,17.60
2017,05,27,09,11,17.60
2017,05,27,09,12,17.60
2017,05,27,09,13,17.60
2017,05,27,09,14,17.60
2017,05,27,09,15,17.60
2017,05,27,09,16,17.50
2017,05,27,09,17,17.40
2017,05,27,09,18,17.50
2017,05,27,09,19,17.60
2017,05,27,09,20,17.70
2017,05,27,09,21,17.60
2017,05,27,09,22,17.60
2017,05,27,09,23,17.70
2017,05,27,09,24,17.70
2017,05,27,09,25,17.80
2017,05,27,09,26,17.90
2017,05,27,09,27,17.90
2017,05,27,09,28,17.90
2017,05,27,09,29,18.00
2017,05,27,09,30,18.10
2017,05,27,09,31,18.20
2017,05,27,09,32,18.20
2017,05,27,09,33,18.20
2017,05,27,09,34,18.30
2017,05,27,09,35,18.40
2017,05,27,09,36,18.50
2017,05,27,09,37,18.60
2017,05,27,09,38,18.50
2017,05,27,09,39,18.50
2017,05,27,09,40,18.40
2017,05,27,09,41,18.20
2017,05,27,09,42,18.00
2017,05,27,09,43,17.80
2017,05,27,09,44,17.60
2017,05,27,09,45,17.30
2017,05,27,09,46,17.10
2017,05,27,09,47,17.10
2017,05,27,09,48,17.00
2017,05,27,09,49,17.00
2017,05,27,09,50,16.80
2017,05,27,09,51,16.80
2017,05,27,09,52,16.70
2017,05,27,09,53,16.60
2017,05,27,09,54,16.60
2017,05,27,09,55,16.60
2017,05,27,09,56,16.60
2017,05,27,09,57,16.80
2017,05,27,09,58,16.80
2017,05,27,09,59,17.00
2017,05,27,10,00,17.20
2017,05,27,10,01,17.10
2017,05,27,10,02,17.10
2017,05,27,10,03,17.00
2017,05,27,10,04,17.10
2017,05,27,10,05,17.10
2017,05,27,10,06,17.00
2017,05,27,10,07,17.00
2017,05,27,10,08,16.90
2017,05,27,10,09,16.80
2017,05,27,10,10,16.60
2017,05,27,10,11,16.60
2017,05,27,10,12,16.40
2017,05,27,10,13,16.40
2017,05,27,10,14,16.40
2017,05,27,10,15,16.40
2017,05,27,10,16,16.60
2017,05,27,10,17,16.70
2017,05,27,10,18,16.70
2017,05,27,10,19,16.70
2017,05,27,10,20,16.70
2017,05,27,10,21,16.70
2017,05,27,10,22,16.70
2017,05,27,10,23,16.80
2017,05,27,10,24,16.80
2017,05,27,10,25,16.80
2017,05,27,10,26,16.90
2017,05,27,10,27,16.90
2017,05,27,10,28,16.80
2017,05,27,10,29,16.90
2017,05,27,10,30,17.10
2017,05,27,10,31,17.20
2017,05,27,10,32,17.20
2017,05,27,10,33,17.00
2017,05,27,10,34,17.00
2017,05,27,10,35,17.00
2017,05,27,10,36,17.00
2017,05,27,10,37,17.00
2017,05,27,10,38,16.90
2017,05,27,10,39,16.90
2017,05,27,10,40,16.80
2017,05,27,10,41,16.80
2017,05,27,10,42,16.80
2017,05,27,10,43,16.80
2017,05,27,10,44,16.90
2017,05,27,10,45,17.00
2017,05,27,10,46,17.00
2017,05,27,10,47,17.10
2017,05,27,10,48,17.10
2017,05,27,10,49,17.00
2017,05,27,10,50,16.90
2017,05,27,10,51,16.90
2017,05,27,10,52,17.00
2017,05,27,10,53,17.00
2017,05,27,10,54,17.10
2017,05,27,10,55,17.30
2017,05,27,10,56,17.30
2017,05,27,10,57,17.30
2017,05,27,10,58,17.30
2017,05,27,10,59,17.30
2017,05,27,11,00,17.30
2017,05,27,11,01,17.20
2017,05,27,11,02,17.20
2017,05,27,11,03,17.00
2017,05,27,11,04,17.00
2017,05,27,11,05,17.00
2017,05,27,11,06,17.00
2017,05,27,11,07,17.20
2017,05,27,11,08,17.30
2017,05,27,11,09,17.40
2017,05,27,11,10,17.40
2017,05,27,11,11,17.50
2017,05,27,11,12,17.50
2017,05,27,11,13,17.50
2017,05,27,11,14,17.50
2017,05,27,11,15,17.40
2017,05,27,11,16,17.50
2017,05,27,11,17,17.60
2017,05,27,11,18,17.70
2017,05,27,11,19,17.70
2017,05,27,11,20,17.70
2017,05,27,11,21,17.80
2017,05,27,11,22,17.90
2017,05,27,11,23,18.00
2017,05,27,11,24,18.00
2017,05,27,11,25,17.90
2017,05,27,11,26,17.90
2017,05,27,11,27,18.00
2017,05,27,11,28,18.10
2017,05,27,11,29,18.10
2017,05,27,11,30,18.20
2017,05,27,11,31,18.20
2017,05,27,11,32,18.10
2017,05,27,11,33,18.10
2017,05,27,11,34,18.20
2017,05,27,11,35,18.10
2017,05,27,11,36,18.10
2017,05,27,11,37,18.10
2017,05,27,11,38,18.10
2017,05,27,11,39,18.00
2017,05,27,11,40,17.90
2017,05,27,11,41,17.90
2017,05,27,11,42,17.90
2017,05,27,11,43,17.90
2017,05,27,11,44,17.90
2017,05,27,11,45,18.00
2017,05,27,11,46,18.10
2017,05,27,11,47,18.10
2017,05,27,11,48,18.10
2017,05,27,11,49,18.00
2017,05,27,11,50,18.00
2017,05,27,11,51,18.00
2017,05,27,11,52,18.10
2017,05,27,11,53,18.20
2017,05,27,11,54,18.20
2017,05,27,11,55,18.20
2017,05,27,11,56,18.40
2017,05,27,11,57,18.50
2017,05,27,11,58,18.60
2017,05,27,11,59,18.60
2017,05,27,12,00,18.60
2017,05,27,12,01,18.60
2017,05,27,12,02,18.70
2017,05,27,12,03,18.70
2017,05,27,12,04,18.70
2017,05,27,12,05,18.70
2017,05,27,12,06,18.70
2017,05,27,12,07,18.70
2017,05,27,12,08,18.80
2017,05,27,12,09,18.80
2017,05,27,12,10,18.90
2017,05,27,12,11,18.90
2017,05,27,12,12,18.90
2017,05,27,12,13,18.90
2017,05,27,12,14,18.80
2017,05,27,12,15,18.90
2017,05,27,12,16,18.80
2017,05,27,12,17,18.70
2017,05,27,12,18,18.70
2017,05,27,12,19,18.60
2017,05,27,12,20,18.50
2017,05,27,12,21,18.60
2017,05,27,12,22,18.60
2017,05,27,12,23,18.50
2017,05,27,12,24,18.30
2017,05,27,12,25,18.30
2017,05,27,12,26,18.30
2017,05,27,12,27,18.30
2017,05,27,12,28,18.40
2017,05,27,12,29,18.50
2017,05,27,12,30,18.40
2017,05,27,12,31,18.30
2017,05,27,12,32,18.30
2017,05,27,12,33,18.30
2017,05,27,12,34,18.40
2017,05,27,12,35,18.40
2017,05,27,12,36,18.40
2017,05,27,12,37,18.40
2017,05,27,12,38,18.40
2017,05,27,12,39,18.50
2017,05,27,12,40,18.50
2017,05,27,12,41,18.50
2017,05,27,12,42,18.50
2017,05,27,12,43,18.50
2017,05,27,12,44,18.40
2017,05,27,12,45,18.40
2017,05,27,12,46,18.40
2017,05,27,12,47,18.40
2017,05,27,12,48,18.30
2017,05,27,12,49,18.30
2017,05,27,12,50,18.40
2017,05,27,12,51,18.40
2017,05,27,12,52,18.50
2017,05,27,12,53,18.60
2017,05,27,12,54,18.70
2017,05,27,12,55,18.80
2017,05,27,12,56,18.90
2017,05,27,12,57,18.90
2017,05,27,12,58,18.90
2017,05,27,12,59,18.90
2017,05,27,13,00,19.00
2017,05,27,13,01,19.10
2017,05,27,13,02,19.10
2017,05,27,13,03,19.20
2017,05,27,13,04,19.30
2017,05,27,13,05,19.40
2017,05,27,13,06,19.40
2017,05,27,13,07,19.40
2017,05,27,13,08,19.40
2017,05,27,13,09,19.50
2017,05,27,13,10,19.60
2017,05,27,13,11,19.70
2017,05,27,13,12,19.80
2017,05,27,13,13,19.80
2017,05,27,13,14,19.80
2017,05,27,13,15,19.80
2017,05,27,13,16,19.90
2017,05,27,13,17,19.90
2017,05,27,13,18,19.90
2017,05,27,13,19,20.00
2017,05,27,13,20,20.10
2017,05,27,13,21,20.20
2017,05,27,13,22,20.30
2017,05,27,13,23,20.30
2017,05,27,13,24,20.30
2017,05,27,13,25,20.20
2017,05,27,13,26,20.20
2017,05,27,13,27,20.20
2017,05,27,13,28,20.20
2017,05,27,13,29,20.10
2017,05,27,13,30,20.00
2017,05,27,13,31,19.90
2017,05,27,13,32,19.80
2017,05,27,13,33,19.80
2017,05,27,13,34,19.80
2017,05,27,13,35,19.70
2017,05,27,13,36,19.60
2017,05,27,13,37,19.50
2017,05,27,13,38,19.50
2017,05,27,13,39,19.60
2017,05,27,13,40,19.60
2017,05,27,13,41,19.60
2017,05,27,13,42,19.60
2017,05,27,13,43,19.70
2017,05,27,13,44,19.70
2017,05,27,13,45,19.70
2017,05,27,13,46,19.90
2017,05,27,13,47,20.00
2017,05,27,13,48,20.20
2017,05,27,13,49,20.20
2017,05,27,13,50,20.30
2017,05,27,13,51,20.40
2017,05,27,13,52,20.40
2017,05,27,13,53,20.40
2017,05,27,13,54,20.30
2017,05,27,13,55,20.30
2017,05,27,13,56,20.30
2017,05,27,13,57,20.30
2017,05,27,13,58,20.20
2017,05,27,13,59,20.20
2017,05,27,14,00,20.20
2017,05,27,14,01,20.30
2017,05,27,14,02,20.40
2017,05,27,14,03,20.40
2017,05,27,14,04,20.30
2017,05,27,14,05,20.40
2017,05,27,14,06,20.50
2017,05,27,14,07,20.50
2017,05,27,14,08,20.50
2017,05,27,14,09,20.40
2017,05,27,14,10,20.40
2017,05,27,14,11,20.40
2017,05,27,14,12,20.50
2017,05,27,14,13,20.50
2017,05,27,14,14,20.50
2017,05,27,14,15,20.50
2017,05,27,14,16,20.50
2017,05,27,14,17,20.50
2017,05,27,14,18,20.60
2017,05,27,14,19,20.70
2017,05,27,14,20,20.60
2017,05,27,14,21,20.60
2017,05,27,14,22,20.60
2017,05,27,14,23,20.70
2017,05,27,14,24,20.70
2017,05,27,14,25,20.60
2017,05,27,14,26,20.70
2017,05,27,14,27,20.70
2017,05,27,14,28,20.80
2017,05,27,14,29,20.80
2017,05,27,14,30,20.80
2017,05,27,14,31,20.80
2017,05,27,14,32,20.80
2017,05,27,14,33,20.80
2017,05,27,14,34,20.80
2017,05,27,14,35,20.80
2017,05,27,14,36,20.80
2017,05,27,14,37,20.80
2017,05,27,14,38,20.80
2017,05,27,14,39,20.70
2017,05,27,14,40,20.70
2017,05,27,14,41,20.70
2017,05,27,14,42,20.70
2017,05,27,14,43,20.60
2017,05,27,14,44,20.60
2017,05,27,14,45,20.50
2017,05,27,14,46,20.50
2017,05,27,14,47,20.50
2017,05,27,14,48,20.50
2017,05,27,14,49,20.50
2017,05,27,14,50,20.60
2017,05,27,14,51,20.70
2017,05,27,14,52,20.80
2017,05,27,14,53,20.90
2017,05,27,14,54,21.00
2017,05,27,14,55,21.00
2017,05,27,14,56,21.10
2017,05,27,14,57,21.10
2017,05,27,14,58,21.10
2017,05,27,14,59,21.20
2017,05,27,15,00,21.10
2017,05,27,15,01,21.10
2017,05,27,15,02,21.10
2017,05,27,15,03,21.00
2017,05,27,15,04,21.00
2017,05,27,15,05,21.00
2017,05,27,15,06,21.10
2017,05,27,15,07,21.10
2017,05,27,15,08,21.10
2017,05,27,15,09,21.20
2017,05,27,15,10,21.20
2017,05,27,15,11,21.30
2017,05,27,15,12,21.40
2017,05,27,15,13,21.40
2017,05,27,15,14,21.60
2017,05,27,15,15,21.70
2017,05,27,15,16,21.70
2017,05,27,15,17,21.60
2017,05,27,15,18,21.60
2017,05,27,15,19,21.60
2017,05,27,15,20,21.70
2017,05,27,15,21,21.80
2017,05,27,15,22,21.90
2017,05,27,15,23,21.90
2017,05,27,15,24,21.90
2017,05,27,15,25,21.80
2017,05,27,15,26,21.80
2017,05,27,15,27,21.80
2017,05,27,15,28,21.90
2017,05,27,15,29,22.00
2017,05,27,15,30,22.10
2017,05,27,15,31,22.20
2017,05,27,15,32,22.20
2017,05,27,15,33,22.20
2017,05,27,15,34,22.20
2017,05,27,15,35,22.20
2017,05,27,15,36,22.30
2017,05,27,15,37,22.30
2017,05,27,15,38,22.30
2017,05,27,15,39,22.20
2017,05,27,15,40,22.20
2017,05,27,15,41,22.20
2017,05,27,15,42,22.20
2017,05,27,15,43,22.10
2017,05,27,15,44,22.10
2017,05,27,15,45,22.10
2017,05,27,15,46,22.00
2017,05,27,15,47,22.00
2017,05,27,15,48,22.10
2017,05,27,15,49,22.10
2017,05,27,15,50,22.10
2017,05,27,15,51,22.00
2017,05,27,15,52,22.00
2017,05,27,15,53,21.90
2017,05,27,15,54,21.90
2017,05,27,15,55,21.90
2017,05,27,15,56,21.90
2017,05,27,15,57,21.90
2017,05,27,15,58,22.00
2017,05,27,15,59,22.00
2017,05,27,16,00,21.90
2017,05,27,16,01,21.90
2017,05,27,16,02,21.90
2017,05,27,16,03,22.00
2017,05,27,16,04,22.00
2017,05,27,16,05,22.00
2017,05,27,16,06,22.10
2017,05,27,16,07,22.10
2017,05,27,16,08,22.10
2017,05,27,16,09,22.10
2017,05,27,16,10,22.10
2017,05,27,16,11,22.10
2017,05,27,16,12,22.20
2017,05,27,16,13,22.10
2017,05,27,16,14,22.10
2017,05,27,16,15,22.10
2017,05,27,16,16,22.10
2017,05,27,16,17,22.10
2017,05,27,16,18,22.10
2017,05,27,16,19,22.10
2017,05,27,16,20,22.10
2017,05,27,16,21,22.10
2017,05,27,16,22,22.10
2017,05,27,16,23,22.10
2017,05,27,16,24,22.20
2017,05,27,16,25,22.30
2017,05,27,16,26,22.30
2017,05,27,16,27,22.20
2017,05,27,16,28,22.20
2017,05,27,16,29,22.10
2017,05,27,16,30,22.10
2017,05,27,16,31,22.20
2017,05,27,16,32,22.20
2017,05,27,16,33,22.20
2017,05,27,16,34,22.30
2017,05,27,16,35,22.30
2017,05,27,16,36,22.30
2017,05,27,16,37,22.30
2017,05,27,16,38,22.30
2017,05,27,16,39,22.30
2017,05,27,16,40,22.30
2017,05,27,16,41,22.40
2017,05,27,16,42,22.40
2017,05,27,16,43,22.40
2017,05,27,16,44,22.40
2017,05,27,16,45,22.40
2017,05,27,16,46,22.40
2017,05,27,16,47,22.40
2017,05,27,16,48,22.40
2017,05,27,16,49,22.40
2017,05,27,16,50,22.40
2017,05,27,16,51,22.50
2017,05,27,16,52,22.50
2017,05,27,16,53,22.60
2017,05,27,16,54,22.60
2017,05,27,16,55,22.70
2017,05,27,16,56,22.70
2017,05,27,16,57,22.80
2017,05,27,16,58,22.90
2017,05,27,16,59,22.90
2017,05,27,17,00,22.90
2017,05,27,17,01,22.90
2017,05,27,17,02,22.90
2017,05,27,17,03,22.90
2017,05,27,17,04,22.90
2017,05,27,17,05,23.00
2017,05,27,17,06,23.10
2017,05,27,17,07,23.10
2017,05,27,17,08,23.10
2017,05,27,17,09,23.10
2017,05,27,17,10,23.00
2017,05,27,17,11,22.90
2017,05,27,17,12,23.00
2017,05,27,17,13,23.10
2017,05,27,17,14,23.10
2017,05,27,17,15,23.10
2017,05,27,17,16,23.20
2017,05,27,17,17,23.20
2017,05,27,17,18,23.20
2017,05,27,17,19,23.20